Regional Weather Roundup
Issued by NWS

Home | Current Version | Previous Version | Text Only | Print | Product List | Glossary On
Versions: 1 2 3 4 5 6 7 8 9 10 11 12 13 14 15 16 17 18 19 20 21 22 23 24 25 26 27 28 29 30 31 32 33 34 35 36 37 38 39 40 41 42 43 44 45 46 47 48 49 50
000
ASUS43 KLMK 250802
RWRKY
KENTUCKY REGIONAL WEATHER ROUNDUP
NATIONAL WEATHER SERVICE LOUISVILLE KY
400 AM EDT THU AUG 25 2016

NOTE "FAIR" INDICATES FEW OR NO CLOUDS BELOW 12,000 FEET
WITH NO SIGNIFICANT WEATHER AND/OR OBSTRUCTIONS TO VISIBILITY.

KYZ001>023-026-027-061>063-070>075-250900-
WESTERN AND SOUTH CENTRAL KENTUCKY

CITY           SKY/WX    TMP DP  RH WIND       PRES   REMARKS
PADUCAH        CLEAR     73  70  90 S3        30.07S
HENDERSON      CLEAR     75  72  88 CALM      30.06S
OWENSBORO      CLEAR     76  75  96 CALM      30.09R
HOPKINSVILLE   CLEAR     77  73  88 CALM      30.11R
BOWLING GREEN  CLEAR     75  72  90 CALM      30.12R
GLASGOW        CLEAR     73  73 100 CALM      30.13R
$$

KYZ024-025-028>034-038-045-046-053-250900-
NORTH CENTRAL KENTUCKY

CITY           SKY/WX    TMP DP  RH WIND       PRES   REMARKS
LOUISVILLE/SDF PTCLDY    80  73  79 SW3       30.09R
LOUISVILLE/LOU CLEAR     79  72  79 SW3       30.10R
FORT KNOX      CLEAR     74  72  93 S2        30.10R
$$

KYZ035>037-039>044-047>052-055>060-089>105-250900-
NORTHEAST KENTUCKY

CITY           SKY/WX    TMP DP  RH WIND       PRES   REMARKS
LEXINGTON      CLEAR     73  70  90 S5        30.13R
COVINGTON      CLOUDY    77  74  90 SW7       30.09R
FRANKFORT      CLEAR     75  71  87 SW6       30.11R
$$

KYZ054-064>069-076>088-106>120-250900-
SOUTHEAST KENTUCKY

CITY           SKY/WX    TMP DP  RH WIND       PRES   REMARKS
JACKSON        CLEAR     74  69  85 CALM      30.16R
LONDON         CLEAR     71  68  90 CALM      30.16S
SOMERSET       CLEAR     72  72 100 CALM      30.16R
MIDDLESBORO    CLEAR     68  68 100 CALM      30.18S
MONTICELLO     SUNNY    N/A N/A N/A W10       30.17R
$$





USA.gov is the U.S. government's official web portal to all federal, state and local government web resources and services.